Helicity
485 344 375 241 163 230 185 158 175 183 167 137 126 160 170 151 109 107 92 78 81 88 94 104 123 135 147 160 152 168 169 161 146 132 93 80 103 65
412 474 248 369 203 182 155 153 147 147 170 111 137 156 165 142 106 105 105 84 82 93 94 108 123 134 154 166 168 156 170 142 91 101 86 65 46 52
505 356 198 281 243 203 133 147 143 159 193 183 167 170 170 144 132 139 125 139 140 99 108 117 131 146 152 162 148 139 103 81 74 59 65 52 74 52
352 207 198 278 246 142 151 138 137 160 180 178 173 168 145 135 124 130 129 136 152 110 114 122 149 164 154 116 100 91 73 63 63 75 89 87 85 63
317 306 267 222 198 149 145 143 154 163 188 197 164 137 123 126 128 124 135 135 152 117 107 115 152 139 113 94 95 83 88 76 63 66 64 63 53 46
349 245 186 151 113 88 126 131 160 185 171 167 169 171 151 115 134 121 124 158 181 175 126 120 109 84 80 88 80 69 55 44 43 49 53 52 48 50
180 123 61 61 74 82 130 148 162 169 167 175 177 181 173 149 134 152 191 182 183 156 151 150 117 160 187 134 101 62 49 48 53 61 60 68 71 53
61 77 105 119 154 175 172 163 161 183 193 199 187 182 180 178 197 192 193 203 175 101 150 142 115 138 171 149 64 28 35 44 46 47 56 58 56 57
99 107 137 146 165 156 149 159 180 165 140 163 186 197 188 177 183 180 174 165 151 151 126 136 104 136 135 109 38 29 33 31 34 51 63 71 66 63
105 100 110 124 136 143 142 148 165 163 141 184 189 163 171 152 144 131 118 124 146 130 114 133 102 130 90 132 64 25 8 17 38 54 59 61 62 62
88 115 114 131 117 125 144 165 169 161 151 108 93 98 82 65 65 109 126 123 109 110 117 117 106 93 99 117 78 3 9 38 47 49 49 51 55 49
129 132 120 120 110 113 159 184 170 139 150 129 125 91 71 76 54 109 132 146 142 113 133 157 134 90 32 139 110 162 158 66 34 25 32 41 45 108
109 120 134 127 134 150 165 174 146 113 122 84 64 70 77 82 90 108 124 164 165 206 176 120 186 173 209 195 176 174 175 141 159 145 73 35 17 30
127 140 134 105 157 153 150 108 89 102 76 66 65 72 82 93 100 111 117 135 173 184 151 140 217 201 185 130 64 90 171 202 199 179 146 91 10 -20
150 118 146 158 145 145 105 87 73 64 51 52 64 85 103 121 114 116 125 135 151 153 146 109 114 95 133 131 113 139 101 195 175 84 64 77 100 88
157 159 149 135 113 71 52 46 50 52 56 68 83 99 110 119 132 143 153 118 102 113 129 117 100 101 118 168 152 194 181 152 141 128 135 129 121 111
160 113 85 56 38 34 42 53 59 65 72 81 91 96 121 130 146 131 139 129 144 139 139 121 115 150 191 163 144 200 178 162 198 207 153 133 135 141
114 66 39 25 24 30 40 50 63 55 79 87 103 128 144 144 142 148 157 157 161 163 165 159 132 102 115 149 188 202 238 240 243 217 196 151 145 149
48 29 24 27 37 42 55 59 68 78 85 103 123 149 160 166 128 165 161 187 201 196 215 193 173 171 154 192 214 163 111 141 166 159 175 154 127 140
26 25 31 40 45 52 57 64 74 83 89 97 127 140 156 171 168 169 169 169 181 190 204 177 178 170 142 135 160 227 149 189 206 170 177 175 201 165
14 29 48 53 55 58 67 78 89 91 77 88 112 145 160 165 181 183 190 118 98 173 202 191 178 99 122 148 174 216 219 130 146 181 159 125 109 64
20 44 53 55 58 64 73 84 94 93 96 106 128 146 165 172 185 173 170 175 182 199 230 251 212 157 158 167 176 191 234 202 176 140 124 97 101 180
29 41 49 57 65 75 86 95 101 105 108 123 137 155 168 177 185 189 209 217 210 198 177 176 177 172 159 163 165 205 214 220 213 214 174 115 95 92
Wind_Speed
33 34 37 41 39 44 42 45 53 69 71 63 63 59 62 75 76 78 78 84 87 87 88 87 87 87 88 90 92 92 93 95 95 94 95 96 97 97
36 37 38 38 40 45 45 48 54 62 73 65 69 70 75 76 77 79 83 87 88 89 88 87 89 91 91 92 92 92 92 95 95 95 94 93 94 94
40 41 50 39 38 44 47 53 58 61 73 77 71 73 78 82 82 83 85 87 85 88 90 90 92 91 92 93 93 94 93 92 92 91 90 89 89 88
36 39 47 42 44 46 52 57 62 62 68 81 78 79 80 81 83 87 87 85 85 88 92 91 91 92 92 92 92 91 89 88 87 86 85 85 83 86
41 42 49 47 51 55 59 61 63 65 69 77 83 79 81 81 86 86 87 86 84 88 89 90 88 88 88 86 87 89 88 86 83 81 80 81 84 87
42 45 56 59 62 62 61 63 65 68 72 78 84 88 86 84 86 97 98 91 94 88 88 86 85 83 84 86 86 84 81 80 79 80 81 85 84 81
53 54 55 54 56 59 63 68 68 70 76 83 88 89 92 93 96 97 102 101 95 88 86 82 80 79 78 78 78 79 79 79 80 81 82 82 80 77
55 49 55 59 62 62 64 67 69 76 82 83 89 93 92 93 95 98 99 102 105 75 83 90 80 81 78 72 73 76 79 82 85 86 84 81 80 79
50 55 60 61 63 64 68 70 71 72 75 81 89 91 96 95 97 97 94 91 91 85 89 91 77 77 74 71 75 78 80 82 84 83 81 79 78 76
54 58 62 64 66 71 71 72 74 75 76 79 84 89 87 84 82 84 86 88 84 77 73 84 78 80 79 75 77 78 77 78 79 78 78 77 76 79
53 58 61 66 70 72 76 78 81 80 78 83 83 82 82 82 83 85 83 81 83 78 75 76 76 84 85 83 71 69 72 75 78 79 80 78 84 89
57 60 65 70 72 71 76 80 87 88 87 82 79 81 78 75 70 65 66 70 75 82 68 72 82 85 89 75 69 70 76 75 76 71 64 65 66 70
65 68 68 70 72 75 78 83 85 83 82 82 80 74 68 65 61 57 57 58 66 69 72 77 78 79 75 88 77 76 75 76 67 61 56 48 39 37
66 67 69 71 75 79 80 80 80 78 75 69 64 64 61 62 62 61 60 58 55 59 62 59 56 56 49 42 64 84 74 68 58 46 40 32 33 60
65 69 72 74 78 79 77 73 67 61 57 56 53 50 53 55 60 62 59 55 50 44 36 26 26 30 28 39 55 57 55 61 31 31 31 28 28 23
68 66 71 76 74 69 63 55 49 43 32 31 39 45 51 58 58 51 49 44 38 31 26 20 21 24 34 32 35 47 42 31 30 31 27 28 29 28
67 72 73 69 63 56 49 40 24 30 33 38 42 47 50 46 39 36 32 28 27 27 27 24 20 21 23 30 33 37 36 34 30 28 26 34 27 26
68 67 61 53 48 41 26 30 31 33 35 35 37 40 37 32 29 31 34 30 26 26 26 26 27 27 27 23 21 37 39 32 32 30 29 36 35 27
56 50 45 42 32 30 28 28 23 27 26 28 32 33 32 32 32 30 28 31 32 31 29 29 27 26 29 35 30 24 44 52 36 33 30 29 34 32
43 40 36 31 31 31 32 31 28 28 27 25 28 31 33 35 31 29 30 31 32 31 32 30 27 25 26 42 54 45 41 32 36 34 41 42 40 36
40 36 30 28 31 34 33 33 31 27 27 27 24 29 35 40 35 30 30 31 31 32 32 30 28 32 29 29 30 33 41 52 44 40 35 33 31 80
37 31 30 31 33 34 34 34 32 29 27 29 28 31 35 40 36 33 31 32 33 32 33 32 31 32 31 33 31 34 41 59 54 31 24 25 22 23
35 36 36 36 36 35 34 36 34 26 25 26 29 31 35 39 40 34 33 32 31 32 32 33 32 36 34 37 42 40 38 37 31 30 28 24 25 26
Wind_Direction
294 297 307 302 314 313 315 315 314 312 314 318 318 321 320 323 324 323 322 320 319 317 315 314 312 311 310 308 307 305 304 303 302 301 300 299 298 297
291 295 298 307 307 313 314 314 313 311 311 315 317 318 319 321 322 321 321 320 318 317 315 313 312 310 309 308 307 305 305 304 302 302 300 299 298 297
294 300 291 309 311 311 313 314 314 313 310 314 316 318 318 319 320 320 320 319 318 317 315 313 312 310 309 308 307 306 305 304 303 301 300 299 299 298
294 292 294 310 311 312 314 314 314 314 313 313 316 317 317 319 318 318 319 319 318 317 315 314 312 311 310 308 307 306 305 304 303 302 301 300 299 298
297 301 304 310 311 312 313 313 314 315 315 314 316 318 319 320 319 320 319 319 319 318 317 315 313 312 311 310 309 307 306 305 303 301 300 299 298 296
304 310 310 311 310 312 313 315 316 316 316 316 315 316 318 320 320 318 318 320 319 319 317 315 314 313 312 311 310 308 306 304 302 301 299 298 298 297
301 311 312 313 315 315 315 316 317 318 317 316 316 317 317 319 318 319 318 319 319 319 318 317 316 315 315 313 312 309 307 305 304 302 300 299 299 298
307 317 316 318 320 322 321 321 319 318 317 317 317 317 318 319 320 319 319 319 318 323 321 317 319 316 316 316 314 311 309 307 304 302 301 300 299 298
318 318 320 323 325 325 323 321 321 320 319 319 318 318 317 319 319 318 318 318 317 319 320 317 320 318 319 318 315 312 310 308 306 305 303 302 300 298
321 321 322 323 325 324 324 323 322 322 322 321 319 318 318 320 320 319 320 319 319 321 323 318 321 318 319 318 316 314 312 310 309 307 305 303 301 298
331 327 327 327 327 326 325 323 323 323 323 322 321 321 322 322 322 322 321 322 322 323 324 320 322 320 319 318 319 317 315 313 310 308 306 304 300 295
332 332 330 329 329 328 327 325 324 324 324 325 326 325 325 326 328 328 327 325 325 325 330 324 323 324 320 321 321 319 316 314 313 312 311 308 305 303
330 330 332 331 330 329 328 327 325 326 326 326 327 329 333 334 337 337 334 330 326 322 324 323 323 323 320 318 320 318 318 317 318 316 314 308 297 288
333 334 332 332 331 330 329 327 327 329 330 333 337 338 341 342 341 340 337 333 328 323 326 327 326 326 321 294 276 309 322 323 322 316 315 303 263 250
337 335 334 333 332 331 332 334 337 341 344 347 350 352 350 347 344 343 342 340 337 333 327 300 287 283 289 276 273 275 279 330 306 270 263 261 263 281
339 339 337 335 337 339 342 349 355 3 13 8 1 357 354 351 350 352 351 351 346 336 338 310 293 284 278 283 280 275 274 272 275 270 272 270 260 251
340 338 339 342 346 352 1 15 36 24 17 9 5 1 358 359 359 359 354 345 342 325 319 326 326 309 291 279 279 278 276 276 279 284 288 272 281 270
342 343 348 356 4 17 40 30 26 21 17 14 10 7 5 2 355 357 1 355 337 329 323 323 326 325 331 327 271 272 276 280 286 298 298 271 270 307
352 360 8 15 32 35 32 28 25 21 17 18 14 10 8 3 356 349 347 356 352 349 338 335 332 336 311 298 333 286 271 274 287 291 304 299 281 292
15 19 27 35 32 27 23 21 19 17 18 18 14 11 8 3 354 348 350 350 351 346 341 345 344 334 308 292 291 294 345 332 334 318 326 326 317 300
22 28 37 36 28 21 18 16 15 14 15 12 8 9 6 6 359 352 349 342 338 345 339 326 326 310 316 323 327 316 346 350 345 335 322 319 316 304
25 35 33 29 22 18 16 14 13 13 12 10 7 5 3 4 357 349 343 338 343 343 337 335 338 344 347 349 323 324 348 353 353 341 314 290 311 335
24 23 21 20 17 15 14 11 10 8 7 5 3 359 359 357 356 347 337 336 338 346 339 329 341 355 351 355 354 352 348 351 344 332 321 298 284 277